Tracking 20083 objects as of 9-Dec-2019
HD Live streaming from Space Station
objects crossing your sky now

COSMOS 2251 DEB

Track COSMOS 2251 DEB now!
10-day predictions


NORAD ID: 34672
Int'l Code: 1993-036XS
Perigee: 768.3 km
Apogee: 807.7 km
Inclination: 74.0 °
Period: 100.5 minutes
Semi major axis: 7158 km
RCS: 0.0123 m2 (small)
Launch date: June 16, 1993
Source: Commonwealth of Independent States (former USSR) (CIS)
Launch site: PLESETSK MISSILE AND SPACE COMPLEX (PKMTR)

Note: This is SATELLITE DEBRIS
aabbcc
Your satellite tracking list
Your tracking list is empty




NASA's NSSDC Master Catalog

Two Line Element Set (TLE):
1 34672U 93036XS  19342.78463142 +.00000083 +00000-0 +39610-4 0  9991
2 34672 074.0362 005.5562 0027494 255.5081 226.9978 14.33257898336950
Source of the keplerian elements: AFSPC